Weather Roundup
Issued by NWS Chicago, IL

Home | Current Version | Previous Version | Text Only | Print | Product List | Glossary On
Versions: 1 2 3 4 5 6 7 8 9 10 11 12 13 14 15 16 17 18 19 20 21 22 23 24 25 26 27 28 29 30 31 32 33 34 35 36 37 38 39 40 41 42 43 44 45 46 47 48 49 50
753
NZUS59 KLOT 081908
HRRLOT

CHICAGO AREA WEATHER ROUNDUP
NATIONAL WEATHER SERVICE CHICAGO/ROMEOVILLE IL
100 PM CST MON FEB 08 2016

NOTE: "FAIR" INDICATES FEW OR NO CLOUDS BELOW 12,000 FEET WITH NO
SIGNIFICANT WEATHER AND/OR OBSTRUCTIONS TO VISIBILITY.

* THESE STATIONS ARE NOT UNDER NWS QUALITY CONTROL. THEY ALSO MAY NOT
  REPORT WEATHER SUCH AS PRECIPITATION OR FOG.

ILZ005-006-012>014-019>023-082000-
NORTHEAST ILLINOIS

CITY           SKY/WX    TMP DP  RH WIND       PRES   REMARKS
OHARE          CLOUDY    27  22  81 W10       29.66S WCI  17
MIDWAY         CLOUDY    30  21  69 W13       29.67S WCI  20
AURORA         CLOUDY    27  21  78 NW14      29.69F WCI  16
LANSING*       CLOUDY    29  24  79 W14       29.67S WCI  19
JOLIET*        CLOUDY    29  21  71 W9G17     29.71S WCI  20
WAUKEGAN       CLOUDY    29  22  75 W12       29.64S WCI  19
DUPAGE AIRPORT CLOUDY    26  20  77 W10       29.67S WCI  16
WHEELING       CLOUDY    28  23  81 NW12      29.67F WCI  18
KANKAKEE*      CLOUDY    27  19  73 W13G18    29.70F WCI  16
MORRIS*        CLOUDY    26  19  75 W15G23    29.68S WCI  14
LEWIS AIRPORT* CLOUDY    28  21  76 NW14      29.69R WCI  16
$$

WIZ051-052-058>065-066-070>072-082000-
SOUTHEAST WISCONSIN

CITY           SKY/WX    TMP DP  RH WIND       PRES   REMARKS
MILWAUKEE      CLOUDY    27  21  78 NW12      29.64S WCI  17
KENOSHA*       CLOUDY    28  21  75 W14       29.64F WCI  17
RACINE*        CLOUDY    27  21  78 NW13      29.65F WCI  16
BURLINGTON     CLOUDY    24  18  78 NW13G18   29.67S WCI  13
WAUKESHA       CLOUDY    21  18  86 W17       29.66S WCI   7
$$

INZ001>003-010>013-019-020-082000-
NORTHWEST INDIANA

CITY           SKY/WX    TMP DP  RH WIND       PRES   REMARKS
GARY*          CLOUDY    32  21  64 W16       29.67S WCI  21
MICHIGAN CITY* NOT AVBL
RENSSELAER*    NOT AVBL
VALPARAISO     CLOUDY    31  24  75 W14       29.65S WCI  21
$$

LMZ740>746-082000-
SOUTHERN LAKE MICHIGAN

STATION/POSITION TIME  SKY/WX   TEMP WIND        PRES    VSBY
                                AIR  DIR/SP/G
                 (UTC)          (F)  (DEG/KT/KT) (MB)    (MI)
HARRISON CRIB    1800            30  290/ 17/ 19   N/A
BURNHAM HARBOR   1900            30  260/ 11/ 14   N/A
CALUMET HARBOR   1800            31  260/  7/ 13 1004.1S
BURNS HARBOR     1800            31  270/ 13/ 16 1005.1S
MICHIGAN CITY    1800            30  240/ 18/ 19   N/A
$$

ABBREVIATIONS USED IN REMARKS
   TC - TEMPERATURE IN CELSIUS
  WCI - WIND CHILL INDEX
   HX - HEAT INDEX
  VSB - VISIBILITY
$$




USA.gov is the U.S. government's official web portal to all federal, state and local government web resources and services.